This is the latest recevied weather packets stored in our database for station/object K7ZQU-7. If no packets are shown the sender has not sent any weather packets the latest 10 day(s).
| Time | Temp. | Humidity | Pressure | Rain* | Wind** | Luminosity | Snow |
|---|---|---|---|---|---|---|---|
| 1777940033 | 17.78° C | 35% | 1012.1 hPa | 0 mm | 3.13 m/s, 357° | - | - |
| 1777939735 | 18.33° C | 36% | 1012.1 hPa | 0 mm | 2.68 m/s, 321° | - | - |
| 1777939436 | 18.33° C | 36% | 1012.1 hPa | 0 mm | 1.34 m/s, 315° | - | - |
| 1777938835 | 18.33° C | 35% | 1012.1 hPa | 0 mm | 2.24 m/s, 315° | - | - |
| 1777937939 | 18.33° C | 34% | 1012.2 hPa | 0 mm | 3.58 m/s, 304° | - | - |
| 1777937637 | 18.33° C | 36% | 1012.1 hPa | 0 mm | 1.79 m/s, 316° | - | - |
| 1777934344 | 19.44° C | 36% | 1012.4 hPa | 0 mm | 3.58 m/s, 298° | - | - |
| 1777933746 | 20° C | 35% | 1012.5 hPa | 0 mm | 1.79 m/s, 335° | - | - |
| 1777932249 | 20° C | 35% | 1012.6 hPa | 0 mm | 1.79 m/s, 287° | - | - |
| 1777931648 | 20.56° C | 34% | 1012.7 hPa | 0 mm | 3.13 m/s, 335° | - | - |
| 1777931051 | 20.56° C | 35% | 1012.7 hPa | 0 mm | 2.24 m/s, 294° | - | - |
| 1777929554 | 20.56° C | 34% | 1012.6 hPa | 0 mm | 1.79 m/s, 318° | - | - |
| 1777928956 | 21.11° C | 35% | 1012.7 hPa | 0 mm | 1.79 m/s, 291° | - | - |
| 1777927459 | 21.11° C | 33% | 1012.6 hPa | 0 mm | 3.13 m/s, 333° | - | - |
| 1777924465 | 21.11° C | 28% | 1012.6 hPa | 0 mm | 1.79 m/s, 31° | - | - |
| 1777923566 | 20.56° C | 28% | 1012.7 hPa | 0 mm | 2.24 m/s, 84° | - | - |
| 1777923267 | 20.56° C | 28% | 1012.7 hPa | 0 mm | 2.68 m/s, 308° | - | - |
| 1777922666 | 20.56° C | 28% | 1012.6 hPa | 0 mm | 1.79 m/s, 10° | - | - |
| 1777921770 | 20.56° C | 30% | 1012.7 hPa | 0 mm | 1.34 m/s, 318° | - | - |
| 1777919974 | 20° C | 28% | 1012.7 hPa | 0 mm | 1.79 m/s, 280° | - | - |
| 1777918175 | 19.44° C | 33% | 1012.6 hPa | 0 mm | 1.79 m/s, 309° | - | - |
| 1777917876 | 19.44° C | 36% | 1012.7 hPa | 0 mm | 2.68 m/s, 328° | - | - |
| 1777916378 | 18.89° C | 39% | 1012.5 hPa | 0 mm | 1.79 m/s, 39° | - | - |
| 1777916079 | 18.89° C | 43% | 1012.5 hPa | 0 mm | 1.79 m/s, 298° | - | - |
| 1777915780 | 18.89° C | 41% | 1012.4 hPa | 0 mm | 3.13 m/s, 280° | - | - |
* Rain latest hour (hover to see other rain measurements)
** Current wind speed in m/s (hover to see current wind gust speed)